Погода в Троицком

Россия / Липецкая область     52°29′40″N   39°31′22″E
темп.,
°C
ветер,
м/с
пор.,
м/с
влажн.,
%
обл.,
%
осадки,
мм/ч
давл.,
гПа
погр.,
м
12 мая, ср
ср1200:00+6в34902 0.0 102666
03:00+6всв349099 0.0 102575
06:00+7всв378394 0.0 1025204
09:00+12всв4666100 0.0 1024740
12:00+12св3478100 1.7 1021821
15:00+12св227576 2.0 1020751
18:00+13в35705 0.0 1019808
21:00+9в48885 0.0 1019156
13 мая, чт
чт1300:00+9в41191100 0.0 1019267
03:00+10в51387100 0.0 1018383
06:00+10в51287100 0.0 1018350
09:00+15юв586956 0.0 1017571
12:00+19юв475523 0.0 10161477
15:00+16зсз447499 0.7 1015504
18:00+15ссв118310 1.9 1016240
21:00+12в22928 2.6 101622
14 мая, пт
пт1400:00+12в1191100 0.0 101711
03:00+12в2292100 0.0 101730
06:00+13вюв38927 0.1 1016184
09:00+18юв5974100 0.1 1016478
12:00+24ююв685754 0.0 10151301
15:00+25ююв61057100 0.0 10131669
18:00+22ю51070100 0.7 1014314
21:00+19вюв478462 1.2 1012101
15 мая, сб
сб1500:00+17вюв38929 0.0 1012140
03:00+15юв34924 0.0 101168
06:00+16в239285 0.0 101197
09:00+19ю5882100 0.9 1012588
12:00+22юв467255 0.3 1011540
15:00+24ю58625 0.9 10111495
18:00+22ю477327 1.1 1011440
21:00+17зюз33864 1.4 101229
16 мая, вс
вс1600:00+15з2286100 0.0 101313
03:00+14зсз11875 0.0 101311
06:00+15зсз1186100 0.0 101314
09:00+20зсз11695 0.0 1014488
12:00+23з125299 0.0 10141268
15:00+24сз12485 0.0 10131485
18:00+23с2260100 0.0 1013113
21:00+18ссв357357 0.0 101373